Time,TemperatureF,DewpointF,PressureIn,WindDirection,WindDirectionDegrees,WindSpeedMPH,WindSpeedGustMPH,Humidity,HourlyPrecipIn,Conditions,Clouds,dailyrainin,SoftwareType,DateUTC
2013-03-15 00:02:00,42.0,38.0,-100.00,WNW,290,1.0,3.0,83,-99.99,,,-99.99,,2013-03-15 05:02:00,
2013-03-15 00:12:00,42.0,38.0,-100.00,South,175,1.0,3.0,85,-99.99,,,-99.99,,2013-03-15 05:12:00,
2013-03-15 00:22:00,42.0,38.0,-100.00,South,175,1.0,3.0,85,-99.99,,,-99.99,,2013-03-15 05:22:00,
2013-03-15 00:32:00,41.0,38.0,-100.00,WNW,290,1.0,2.0,87,-99.99,,,-99.99,,2013-03-15 05:32:00,
2013-03-15 00:42:00,41.0,37.0,-100.00,SW,230,0.0,4.0,86,-99.99,,,-99.99,,2013-03-15 05:42:00,
2013-03-15 00:52:00,41.0,37.0,-100.00,SW,230,0.0,4.0,86,-99.99,,,-99.99,,2013-03-15 05:52:00,
2013-03-15 01:02:00,41.0,37.0,-100.00,West,270,1.0,4.0,87,-99.99,,,-99.99,,2013-03-15 06:02:00,
2013-03-15 01:12:00,40.0,37.0,-100.00,West,280,1.0,3.0,89,-99.99,,,-99.99,,2013-03-15 06:12:00,
2013-03-15 01:22:00,40.0,37.0,-100.00,West,280,1.0,3.0,89,-99.99,,,-99.99,,2013-03-15 06:22:00,
2013-03-15 01:32:00,39.0,37.0,-100.00,West,270,0.0,2.0,90,-99.99,,,-99.99,,2013-03-15 06:32:00,
2013-03-15 01:42:00,40.0,37.0,-100.00,WNW,295,1.0,2.0,89,-99.99,,,-99.99,,2013-03-15 06:42:00,
2013-03-15 01:52:00,40.0,37.0,-100.00,WNW,295,1.0,2.0,89,-99.99,,,-99.99,,2013-03-15 06:52:00,
2013-03-15 02:02:00,39.0,36.0,-100.00,West,270,0.0,2.0,90,-99.99,,,-99.99,,2013-03-15 07:02:00,
2013-03-15 02:12:00,39.0,36.0,-100.00,SSW,200,1.0,2.0,90,-99.99,,,-99.99,,2013-03-15 07:12:00,
2013-03-15 02:22:00,39.0,36.0,-100.00,SSW,200,1.0,2.0,90,-99.99,,,-99.99,,2013-03-15 07:22:00,
2013-03-15 02:30:00,38.0,35.0,-100.00,WNW,285,1.0,2.0,91,-99.99,,,-99.99,,2013-03-15 07:30:00,
2013-03-15 02:32:00,38.0,36.0,-100.00,WNW,290,2.0,2.0,91,-99.99,,,-99.99,,2013-03-15 07:32:00,
2013-03-15 02:42:00,37.0,35.0,-100.00,WNW,295,1.0,3.0,92,-99.99,,,-99.99,,2013-03-15 07:42:00,
2013-03-15 02:52:00,37.0,35.0,-100.00,WNW,295,1.0,3.0,92,-99.99,,,-99.99,,2013-03-15 07:52:00,
2013-03-15 03:02:00,38.0,35.0,-100.00,WNW,290,0.0,2.0,91,-99.99,,,-99.99,,2013-03-15 08:02:00,
2013-03-15 03:12:00,38.0,35.0,-100.00,WNW,285,1.0,2.0,91,-99.99,,,-99.99,,2013-03-15 08:12:00,
2013-03-15 03:23:00,38.0,35.0,-100.00,WNW,285,1.0,2.0,91,-99.99,,,-99.99,,2013-03-15 08:23:00,
2013-03-15 03:42:00,36.0,35.0,-100.00,West,260,1.0,2.0,93,-99.99,,,-99.99,,2013-03-15 08:42:00,
2013-03-15 03:52:00,36.0,35.0,-100.00,West,260,1.0,2.0,93,-99.99,,,-99.99,,2013-03-15 08:52:00,
2013-03-15 04:02:00,36.0,34.0,-100.00,WNW,295,1.0,2.0,93,-99.99,,,-99.99,,2013-03-15 09:02:00,
2013-03-15 04:12:00,36.0,34.0,-100.00,WNW,295,0.0,2.0,93,-99.99,,,-99.99,,2013-03-15 09:12:00,
2013-03-15 04:22:00,36.0,34.0,-100.00,WNW,295,0.0,2.0,93,-99.99,,,-99.99,,2013-03-15 09:22:00,
2013-03-15 04:33:00,35.0,33.0,-100.00,WNW,285,1.0,2.0,93,-99.99,,,-99.99,,2013-03-15 09:33:00,
2013-03-15 04:43:00,36.0,34.0,-100.00,SSW,205,1.0,3.0,94,-99.99,,,-99.99,,2013-03-15 09:43:00,
2013-03-15 04:52:00,36.0,34.0,-100.00,SSW,205,1.0,3.0,94,-99.99,,,-99.99,,2013-03-15 09:52:00,
2013-03-15 05:03:00,36.0,34.0,-100.00,West,270,0.0,2.0,93,-99.99,,,-99.99,,2013-03-15 10:03:00,
2013-03-15 05:12:00,35.0,33.0,-100.00,WNW,285,1.0,3.0,93,-99.99,,,-99.99,,2013-03-15 10:12:00,
2013-03-15 05:23:00,35.0,33.0,-100.00,WNW,285,1.0,3.0,93,-99.99,,,-99.99,,2013-03-15 10:23:00,
2013-03-15 05:33:00,35.0,33.0,-100.00,WSW,250,1.0,4.0,94,-99.99,,,-99.99,,2013-03-15 10:33:00,
2013-03-15 05:42:00,35.0,33.0,-100.00,West,280,1.0,2.0,93,-99.99,,,-99.99,,2013-03-15 10:42:00,
2013-03-15 05:52:00,35.0,33.0,-100.00,West,280,1.0,2.0,93,-99.99,,,-99.99,,2013-03-15 10:52:00,
2013-03-15 06:03:00,34.0,33.0,-100.00,West,275,0.0,2.0,94,-99.99,,,-99.99,,2013-03-15 11:03:00,
2013-03-15 06:12:00,35.0,33.0,-100.00,WNW,290,1.0,2.0,93,-99.99,,,-99.99,,2013-03-15 11:12:00,
2013-03-15 06:22:00,35.0,33.0,-100.00,WNW,290,1.0,2.0,93,-99.99,,,-99.99,,2013-03-15 11:22:00,
2013-03-15 06:32:00,35.0,33.0,-100.00,WSW,240,1.0,5.0,95,-99.99,,,-99.99,,2013-03-15 11:32:00,
2013-03-15 06:42:00,35.0,33.0,-100.00,WNW,285,1.0,2.0,93,-99.99,,,-99.99,,2013-03-15 11:42:00,
2013-03-15 06:52:00,35.0,33.0,-100.00,WNW,285,1.0,2.0,93,-99.99,,,-99.99,,2013-03-15 11:52:00,
2013-03-15 07:02:00,34.0,32.0,-100.00,SW,220,1.0,2.0,94,-99.99,,,-99.99,,2013-03-15 12:02:00,
2013-03-15 07:12:00,34.0,33.0,-100.00,WSW,250,1.0,4.0,94,-99.99,,,-99.99,,2013-03-15 12:12:00,
2013-03-15 07:23:00,34.0,33.0,-100.00,WSW,250,1.0,4.0,94,-99.99,,,-99.99,,2013-03-15 12:23:00,
2013-03-15 07:32:00,34.0,32.0,-100.00,SW,220,0.0,4.0,93,-99.99,,,-99.99,,2013-03-15 12:32:00,
2013-03-15 07:42:00,34.0,32.0,-100.00,South,175,2.0,4.0,93,-99.99,,,-99.99,,2013-03-15 12:42:00,
2013-03-15 07:52:00,34.0,32.0,-100.00,South,175,2.0,4.0,93,-99.99,,,-99.99,,2013-03-15 12:52:00,
2013-03-15 08:02:00,34.0,32.0,-100.00,SW,230,1.0,3.0,93,-99.99,,,-99.99,,2013-03-15 13:02:00,
2013-03-15 08:12:00,34.0,32.0,-100.00,SSW,195,1.0,3.0,92,-99.99,,,-99.99,,2013-03-15 13:12:00,
2013-03-15 08:22:00,34.0,32.0,-100.00,SSW,195,1.0,3.0,92,-99.99,,,-99.99,,2013-03-15 13:22:00,
2013-03-15 08:32:00,35.0,32.0,-100.00,SSW,195,1.0,4.0,92,-99.99,,,-99.99,,2013-03-15 13:32:00,
2013-03-15 08:42:00,34.0,32.0,-100.00,South,190,2.0,5.0,92,-99.99,,,-99.99,,2013-03-15 13:42:00,
2013-03-15 08:52:00,34.0,32.0,-100.00,South,190,2.0,5.0,92,-99.99,,,-99.99,,2013-03-15 13:52:00,
2013-03-15 09:02:00,36.0,33.0,-100.00,WNW,290,1.0,3.0,90,-99.99,,,-99.99,,2013-03-15 14:02:00,
2013-03-15 09:12:00,38.0,35.0,-100.00,NW,310,1.0,5.0,88,-99.99,,,-99.99,,2013-03-15 14:12:00,
2013-03-15 09:22:00,38.0,35.0,-100.00,NW,310,1.0,5.0,88,-99.99,,,-99.99,,2013-03-15 14:22:00,
2013-03-15 09:32:00,42.0,37.0,-100.00,WNW,295,1.0,4.0,85,-99.99,,,-99.99,,2013-03-15 14:32:00,
2013-03-15 09:42:00,42.0,38.0,-100.00,WNW,290,2.0,4.0,85,-99.99,,,-99.99,,2013-03-15 14:42:00,
2013-03-15 09:50:00,59.0,46.0,-100.00,NW,325,1.0,4.0,62,-99.99,,,-99.99,,2013-03-15 14:50:00,
2013-03-15 09:52:00,42.0,38.0,-100.00,WNW,290,2.0,4.0,85,-99.99,,,-99.99,,2013-03-15 14:52:00,
2013-03-15 10:02:00,50.0,44.0,-100.00,WSW,240,1.0,5.0,78,-99.99,,,-99.99,,2013-03-15 15:02:00,
2013-03-15 10:13:00,55.0,48.0,-100.00,East,100,1.0,4.0,76,-99.99,,,-99.99,,2013-03-15 15:13:00,
2013-03-15 10:20:00,65.0,47.0,-100.00,WNW,295,5.0,13.0,53,-99.99,,,-99.99,,2013-03-15 15:20:00,
2013-03-15 10:23:00,55.0,48.0,-100.00,East,100,1.0,4.0,76,-99.99,,,-99.99,,2013-03-15 15:23:00,
2013-03-15 10:33:00,59.0,46.0,-100.00,NW,325,1.0,4.0,62,-99.99,,,-99.99,,2013-03-15 15:33:00,
2013-03-15 10:42:00,59.0,46.0,-100.00,NW,325,1.0,4.0,62,-99.99,,,-99.99,,2013-03-15 15:42:00,
2013-03-15 11:00:00,68.0,47.0,-100.00,WNW,295,10.0,14.0,48,-99.99,,,-99.99,,2013-03-15 16:00:00,
2013-03-15 11:03:00,65.0,47.0,-100.00,WNW,295,5.0,13.0,53,-99.99,,,-99.99,,2013-03-15 16:03:00,
2013-03-15 11:12:00,65.0,47.0,-100.00,WNW,295,5.0,13.0,53,-99.99,,,-99.99,,2013-03-15 16:12:00,
2013-03-15 11:32:00,67.0,47.0,-100.00,WNW,295,7.0,14.0,50,-99.99,,,-99.99,,2013-03-15 16:32:00,
2013-03-15 11:42:00,68.0,47.0,-100.00,WNW,295,10.0,14.0,48,-99.99,,,-99.99,,2013-03-15 16:42:00,
2013-03-15 11:52:00,68.0,47.0,-100.00,WNW,295,10.0,14.0,48,-99.99,,,-99.99,,2013-03-15 16:52:00,
2013-03-15 12:12:00,70.0,47.0,-100.00,WNW,295,9.0,13.0,44,-99.99,,,-99.99,,2013-03-15 17:12:00,
2013-03-15 12:22:00,70.0,47.0,-100.00,WNW,295,9.0,13.0,44,-99.99,,,-99.99,,2013-03-15 17:22:00,
2013-03-15 12:32:00,71.0,47.0,-100.00,NW,305,7.0,13.0,42,-99.99,,,-99.99,,2013-03-15 17:32:00,
2013-03-15 12:42:00,72.0,46.0,-100.00,WNW,300,10.0,16.0,40,-99.99,,,-99.99,,2013-03-15 17:42:00,
2013-03-15 12:52:00,72.0,46.0,-100.00,WNW,300,10.0,16.0,40,-99.99,,,-99.99,,2013-03-15 17:52:00,
2013-03-15 13:02:00,74.0,46.0,-100.00,WNW,300,10.0,15.0,38,-99.99,,,-99.99,,2013-03-15 18:02:00,
2013-03-15 13:12:00,74.0,46.0,-100.00,WNW,295,11.0,14.0,37,-99.99,,,-99.99,,2013-03-15 18:12:00,
2013-03-15 13:22:00,74.0,46.0,-100.00,WNW,295,11.0,14.0,37,-99.99,,,-99.99,,2013-03-15 18:22:00,
2013-03-15 13:32:00,75.0,47.0,-100.00,WNW,295,11.0,15.0,37,-99.99,,,-99.99,,2013-03-15 18:32:00,
2013-03-15 13:42:00,75.0,47.0,-100.00,NW,305,11.0,16.0,37,-99.99,,,-99.99,,2013-03-15 18:42:00,
2013-03-15 13:52:00,75.0,47.0,-100.00,NW,305,11.0,16.0,37,-99.99,,,-99.99,,2013-03-15 18:52:00,
2013-03-15 14:02:00,77.0,48.0,-100.00,NW,305,11.0,21.0,36,-99.99,,,-99.99,,2013-03-15 19:02:00,
2013-03-15 14:12:00,78.0,47.0,-100.00,NW,305,11.0,16.0,34,-99.99,,,-99.99,,2013-03-15 19:12:00,
2013-03-15 14:22:00,78.0,47.0,-100.00,NW,305,11.0,16.0,34,-99.99,,,-99.99,,2013-03-15 19:22:00,
2013-03-15 14:32:00,79.0,47.0,-100.00,WNW,300,12.0,17.0,33,-99.99,,,-99.99,,2013-03-15 19:32:00,
2013-03-15 14:42:00,79.0,46.0,-100.00,WNW,300,15.0,20.0,32,-99.99,,,-99.99,,2013-03-15 19:42:00,
2013-03-15 14:52:00,79.0,46.0,-100.00,WNW,300,15.0,20.0,32,-99.99,,,-99.99,,2013-03-15 19:52:00,
2013-03-15 15:02:00,79.0,45.0,-100.00,NW,305,13.0,28.0,31,-99.99,,,-99.99,,2013-03-15 20:02:00,
2013-03-15 15:12:00,79.0,46.0,-100.00,NW,305,12.0,21.0,31,-99.99,,,-99.99,,2013-03-15 20:12:00,
2013-03-15 15:22:00,79.0,46.0,-100.00,NW,305,12.0,21.0,31,-99.99,,,-99.99,,2013-03-15 20:22:00,
2013-03-15 15:32:00,80.0,47.0,-100.00,WNW,295,16.0,22.0,31,-99.99,,,-99.99,,2013-03-15 20:32:00,
2013-03-15 15:42:00,80.0,45.0,-100.00,NW,305,15.0,23.0,29,-99.99,,,-99.99,,2013-03-15 20:42:00,
2013-03-15 15:52:00,80.0,45.0,-100.00,NW,305,15.0,23.0,29,-99.99,,,-99.99,,2013-03-15 20:52:00,
2013-03-15 16:02:00,80.0,46.0,-100.00,NW,305,12.0,28.0,30,-99.99,,,-99.99,,2013-03-15 21:02:00,
2013-03-15 16:12:00,79.0,44.0,-100.00,WNW,300,18.0,27.0,29,-99.99,,,-99.99,,2013-03-15 21:12:00,
2013-03-15 16:22:00,79.0,44.0,-100.00,WNW,300,18.0,27.0,29,-99.99,,,-99.99,,2013-03-15 21:22:00,
2013-03-15 16:33:00,78.0,45.0,-100.00,NW,305,14.0,26.0,31,-99.99,,,-99.99,,2013-03-15 21:33:00,
2013-03-15 16:43:00,79.0,46.0,-100.00,WNW,300,12.0,19.0,31,-99.99,,,-99.99,,2013-03-15 21:43:00,
2013-03-15 16:52:00,79.0,46.0,-100.00,WNW,300,12.0,19.0,31,-99.99,,,-99.99,,2013-03-15 21:52:00,
2013-03-15 17:03:00,78.0,44.0,-100.00,WNW,300,12.0,23.0,30,-99.99,,,-99.99,,2013-03-15 22:03:00,
2013-03-15 17:13:00,78.0,44.0,-100.00,NW,305,13.0,24.0,30,-99.99,,,-99.99,,2013-03-15 22:13:00,
2013-03-15 17:22:00,78.0,44.0,-100.00,NW,305,13.0,24.0,30,-99.99,,,-99.99,,2013-03-15 22:22:00,
2013-03-15 17:32:00,78.0,44.0,-100.00,WNW,300,8.0,20.0,30,-99.99,,,-99.99,,2013-03-15 22:32:00,
2013-03-15 17:42:00,78.0,45.0,-100.00,NW,305,6.0,19.0,31,-99.99,,,-99.99,,2013-03-15 22:42:00,
2013-03-15 17:52:00,78.0,45.0,-100.00,NW,305,6.0,19.0,31,-99.99,,,-99.99,,2013-03-15 22:52:00,
2013-03-15 18:02:00,78.0,45.0,-100.00,WNW,300,11.0,14.0,31,-99.99,,,-99.99,,2013-03-15 23:02:00,
2013-03-15 18:12:00,79.0,45.0,-100.00,NW,305,6.0,11.0,30,-99.99,,,-99.99,,2013-03-15 23:12:00,
2013-03-15 18:22:00,79.0,45.0,-100.00,NW,305,6.0,11.0,30,-99.99,,,-99.99,,2013-03-15 23:22:00,
2013-03-15 18:32:00,80.0,44.0,-100.00,WNW,300,15.0,22.0,28,-99.99,,,-99.99,,2013-03-15 23:32:00,
2013-03-15 18:42:00,79.0,43.0,-100.00,WNW,300,10.0,20.0,28,-99.99,,,-99.99,,2013-03-15 23:42:00,
2013-03-15 18:52:00,79.0,43.0,-100.00,WNW,300,10.0,20.0,28,-99.99,,,-99.99,,2013-03-15 23:52:00,
2013-03-15 19:02:00,78.0,43.0,-100.00,NW,305,7.0,16.0,29,-99.99,,,-99.99,,2013-03-16 00:02:00,
2013-03-15 19:12:00,77.0,43.0,-100.00,WNW,300,9.0,16.0,30,-99.99,,,-99.99,,2013-03-16 00:12:00,
2013-03-15 19:22:00,77.0,43.0,-100.00,WNW,300,9.0,16.0,30,-99.99,,,-99.99,,2013-03-16 00:22:00,
2013-03-15 19:32:00,76.0,42.0,-100.00,WNW,300,7.0,11.0,30,-99.99,,,-99.99,,2013-03-16 00:32:00,
2013-03-15 19:42:00,76.0,43.0,-100.00,WNW,300,6.0,13.0,31,-99.99,,,-99.99,,2013-03-16 00:42:00,
2013-03-15 19:52:00,76.0,43.0,-100.00,WNW,300,6.0,13.0,31,-99.99,,,-99.99,,2013-03-16 00:52:00,
2013-03-15 20:02:00,74.0,43.0,-100.00,WNW,300,7.0,10.0,32,-99.99,,,-99.99,,2013-03-16 01:02:00,
2013-03-15 20:12:00,74.0,43.0,-100.00,WNW,300,5.0,10.0,33,-99.99,,,-99.99,,2013-03-16 01:12:00,
2013-03-15 20:21:00,74.0,43.0,-100.00,WNW,300,5.0,10.0,33,-99.99,,,-99.99,,2013-03-16 01:21:00,
2013-03-15 20:32:00,74.0,43.0,-100.00,WNW,300,7.0,11.0,34,-99.99,,,-99.99,,2013-03-16 01:32:00,
2013-03-15 20:42:00,73.0,44.0,-100.00,WNW,300,5.0,10.0,35,-99.99,,,-99.99,,2013-03-16 01:42:00,
2013-03-15 20:52:00,73.0,44.0,-100.00,WNW,300,5.0,10.0,35,-99.99,,,-99.99,,2013-03-16 01:52:00,
2013-03-15 21:02:00,72.0,44.0,-100.00,WNW,300,5.0,10.0,36,-99.99,,,-99.99,,2013-03-16 02:02:00,
2013-03-15 21:12:00,72.0,44.0,-100.00,WNW,300,7.0,13.0,37,-99.99,,,-99.99,,2013-03-16 02:12:00,
2013-03-15 21:23:00,72.0,44.0,-100.00,WNW,300,7.0,13.0,37,-99.99,,,-99.99,,2013-03-16 02:23:00,
2013-03-15 21:32:00,71.0,44.0,-100.00,WNW,300,6.0,10.0,38,-99.99,,,-99.99,,2013-03-16 02:32:00,
2013-03-15 21:42:00,69.0,44.0,-100.00,WNW,295,4.0,7.0,40,-99.99,,,-99.99,,2013-03-16 02:42:00,
2013-03-15 21:52:00,69.0,44.0,-100.00,WNW,295,4.0,7.0,40,-99.99,,,-99.99,,2013-03-16 02:52:00,
2013-03-15 22:02:00,67.0,44.0,-100.00,WNW,295,4.0,7.0,44,-99.99,,,-99.99,,2013-03-16 03:02:00,
2013-03-15 22:12:00,67.0,44.0,-100.00,WNW,295,3.0,6.0,43,-99.99,,,-99.99,,2013-03-16 03:12:00,
2013-03-15 22:22:00,67.0,44.0,-100.00,WNW,295,3.0,6.0,43,-99.99,,,-99.99,,2013-03-16 03:22:00,
2013-03-15 22:32:00,66.0,44.0,-100.00,WNW,295,5.0,7.0,45,-99.99,,,-99.99,,2013-03-16 03:32:00,
2013-03-15 22:43:00,66.0,44.0,-100.00,WNW,295,4.0,7.0,46,-99.99,,,-99.99,,2013-03-16 03:43:00,
2013-03-15 22:52:00,66.0,44.0,-100.00,WNW,295,4.0,7.0,46,-99.99,,,-99.99,,2013-03-16 03:52:00,
2013-03-15 23:02:00,66.0,44.0,-100.00,WNW,290,4.0,6.0,46,-99.99,,,-99.99,,2013-03-16 04:02:00,
2013-03-15 23:13:00,65.0,44.0,-100.00,WNW,290,3.0,7.0,47,-99.99,,,-99.99,,2013-03-16 04:13:00,
2013-03-15 23:23:00,65.0,44.0,-100.00,WNW,290,3.0,7.0,47,-99.99,,,-99.99,,2013-03-16 04:23:00,
2013-03-15 23:33:00,64.0,44.0,-100.00,WNW,290,4.0,6.0,48,-99.99,,,-99.99,,2013-03-16 04:33:00,
2013-03-15 23:43:00,63.0,44.0,-100.00,WNW,290,3.0,8.0,49,-99.99,,,-99.99,,2013-03-16 04:43:00,
2013-03-15 23:52:00,63.0,44.0,-100.00,WNW,290,3.0,8.0,49,-99.99,,,-99.99,,2013-03-16 04:52:00,